Location: Herm
(49.4830°N, 2.4500°W)
Time: 05:36:18
(UTC+00:00)

OTV 5 (USA 277) - Pass Details

Date: 29 October 2019
Orbit: 310 x 324 km, 54.5° (Epoch: 17 October)

Event Time Altitude Azimuth Distance (km) Brightness Sun altitude
Rises 18:50:06 0° 221° (SW) 2,054 ? -19.4°
Reaches altitude 10° 18:52:07 10° 212° (SSW) 1,229 ? -19.7°
Enters shadow 18:53:10 19° 200° (SSW) 839 ? -19.9°
